Location: *
(44.1392°N, 4.8079°E)
Time: 07:22:15
(UTC+00:00)

UNK - Pass Details

Date: 21 June 2021
Orbit: 666 x 686 km, 98.2° (Epoch: 31 July)

Event Time Altitude Azimuth Distance (km) Brightness Sun altitude
Exits shadow 01:29:23 28° 166° (SSE) 1,260 4.7 -18.1°
Maximum altitude 01:31:50 89° 250° (WSW) 681 3.7 -17.9°
Drops below altitude 10° 01:36:29 10° 347° (NNW) 2,125 7.0 -17.6°
Sets 01:38:44 0° 347° (NNW) 3,047 7.9 -17.4°
